Home > Time Zones > World Clock > Weather > Norway > Ski > Past weeks

Flag for Norway Weather past 2 weeks in Ski, Norway

Now
39 °F

Partly sunny.


Feels Like: 30 °F
Forecast: 6 / 12 °F
Wind: 18 mph from Northeast

Location: Oslo / Fornebu

Current Time: Dec 26, 2014 at 12:02:07 PM

Latest Report: Dec 26, 2014 at 11:20 AM


Visibility: N/A

Pressure: 30.07 "Hg

Humidity: 81%

Dew point: 34 °F

Location of SkiLocation

Historic Weather in Ski — Graph

°F

Ski temperature yesterday

Maximum temperature yesterday: 41 °F (at 9:20 AM)
Minimum temperature yesterday: 36 °F (at 3:50 PM)
Average temperature yesterday: 39 °F

Past Weeks' High & Low Weather Summary

 TemperatureHumidityPressure
High48 °F (Dec 14, 9:20 AM)100% (Dec 15, 9:20 PM)30.21 "Hg (Dec 15, 9:20 PM)
Low32 °F (Dec 15, 9:20 PM)41% (Dec 15, 11:20 AM)28.68 "Hg (Dec 11, 10:20 AM)
Average42 °F72%29.26 "Hg
* Reported Dec 11 10:20 AM — Dec 26 10:50 AM, Ski, Weather by CustomWeather, © 2014

Note: Actual official high and low records may vary slightly from our data, if they occured in-between our weather recording intervals... More about our weather records

Advertising

Ski weather history for previous 24 hours

 ConditionsComfort  
Time TempWeatherWind HumidityBarometerVisibility
10:50 AM
Dec 26
37 °FScattered clouds.22 mph87%30.07 "HgN/A
10:20 AM39 °FPartly sunny.21 mph81%30.07 "HgN/A
9:50 AM39 °FScattered clouds.15 mph81%30.07 "HgN/A
9:20 AM39 °FPassing clouds.16 mph81%30.07 "HgN/A
8:50 AM41 °FPassing clouds.20 mph70%30.04 "HgN/A
8:20 AM39 °FPassing clouds.20 mph70%30.07 "HgN/A
7:50 AM39 °FSprinkles. Passing clouds.21 mph75%30.07 "HgN/A
7:20 AM39 °FPassing clouds.16 mph81%30.07 "HgN/A
6:50 AM39 °FPassing clouds.23 mph87%30.07 "HgN/A
6:20 AM37 °FPassing clouds.16 mph87%30.07 "HgN/A
5:50 AM37 °FSprinkles. Passing clouds.23 mph93%30.09 "HgN/A
5:20 AM37 °FSprinkles. Passing clouds.20 mph87%30.09 "HgN/A
4:50 AM37 °FPassing clouds.26 mph87%30.09 "HgN/A
4:20 AM37 °FLight rain. Passing clouds.35 mph87%30.09 "HgN/A
3:20 AM41 °FPassing clouds.31 mph76%30.12 "HgN/A
2:50 AM41 °FPassing clouds.21 mph57%30.15 "HgN/A
2:20 AM41 °FPassing clouds.18 mph61%30.15 "HgN/A
1:50 AM41 °FPassing clouds.16 mph61%30.15 "HgN/A
1:20 AM41 °FPassing clouds.13 mph66%30.18 "HgN/A
12:50 AM41 °FPassing clouds.13 mph66%30.18 "HgN/A
12:20 AM39 °FPassing clouds.15 mph70%30.18 "HgN/A
11:50 PM
Dec 25
39 °FPassing clouds.14 mph70%30.18 "HgN/A
11:20 PM39 °FPassing clouds.18 mph70%30.21 "HgN/A
10:50 PM41 °FPassing clouds.20 mph66%30.21 "HgN/A
10:20 PM41 °FPassing clouds.21 mph70%30.21 "HgN/A
9:50 PM39 °FPassing clouds.21 mph70%30.21 "HgN/A
9:20 PM41 °FPassing clouds.20 mph70%30.18 "HgN/A
8:50 PM39 °FSprinkles. Passing clouds.17 mph70%30.18 "HgN/A
8:20 PM39 °FPassing clouds.20 mph70%30.18 "HgN/A
7:50 PM39 °FPassing clouds.18 mph70%30.21 "HgN/A
7:20 PM39 °FPassing clouds.20 mph70%30.21 "HgN/A
6:50 PM39 °FPassing clouds.17 mph75%30.21 "HgN/A
6:20 PM37 °FSprinkles. Passing clouds.22 mph75%30.18 "HgN/A
5:50 PM37 °FPassing clouds.3 mph87%30.21 "HgN/A
5:20 PM37 °FPassing clouds.2 mph87%30.21 "HgN/A
4:50 PM37 °FSprinkles. Partly cloudy.No wind87%30.21 "HgN/A
4:20 PM37 °FSprinkles. Passing clouds.No wind87%30.21 "HgN/A
3:50 PM36 °FSnow flurries. Partly cloudy.8 mph87%30.18 "HgN/A
3:20 PM39 °FLight rain. Passing clouds.3 mph75%30.18 "HgN/A
2:50 PM39 °FPassing clouds.2 mph75%30.18 "HgN/A
2:20 PM39 °FScattered clouds.2 mph75%30.18 "HgN/A
1:50 PM39 °FChilly.2 mph75%30.18 "HgN/A
1:20 PM39 °FPassing clouds.6 mph75%30.18 "HgN/A
12:50 PM37 °FSprinkles. Broken clouds.12 mph87%30.15 "HgN/A
12:20 PM37 °FRain. Partly sunny.6 mph81%30.15 "HgN/A
Weather by CustomWeather, © 2014

See weather overviewHow to use our weather pages